Year,Month,Day,Hour,Minute,Value (Times are PST for windgust in km/hr)
2015,08,28,00,00,8.10
2015,08,28,00,01,9.60
2015,08,28,00,02,6.40
2015,08,28,00,03,9.60
2015,08,28,00,04,8.10
2015,08,28,00,05,9.60
2015,08,28,00,06,9.60
2015,08,28,00,07,3.20
2015,08,28,00,08,8.10
2015,08,28,00,09,6.40
2015,08,28,00,10,3.20
2015,08,28,00,11,6.40
2015,08,28,00,12,8.10
2015,08,28,00,13,3.20
2015,08,28,00,14,9.60
2015,08,28,00,15,11.30
2015,08,28,00,16,4.80
2015,08,28,00,17,12.90
2015,08,28,00,18,11.30
2015,08,28,00,19,11.30
2015,08,28,00,20,8.10
2015,08,28,00,21,3.20
2015,08,28,00,22,6.40
2015,08,28,00,23,4.80
2015,08,28,00,24,3.20
2015,08,28,00,25,4.80
2015,08,28,00,26,4.80
2015,08,28,00,27,4.80
2015,08,28,00,28,4.80
2015,08,28,00,29,4.80
2015,08,28,00,30,6.40
2015,08,28,00,31,8.10
2015,08,28,00,32,3.20
2015,08,28,00,33,3.20
2015,08,28,00,34,1.60
2015,08,28,00,35,3.20
2015,08,28,00,36,3.20
2015,08,28,00,37,6.40
2015,08,28,00,38,6.40
2015,08,28,00,39,4.80
2015,08,28,00,40,3.20
2015,08,28,00,41,3.20
2015,08,28,00,42,4.80
2015,08,28,00,43,3.20
2015,08,28,00,47,3.20
2015,08,28,00,48,3.20
2015,08,28,00,49,6.40
2015,08,28,00,50,4.80
2015,08,28,00,51,4.80
2015,08,28,00,52,4.80
2015,08,28,00,53,4.80
2015,08,28,00,54,4.80
2015,08,28,00,55,4.80
2015,08,28,00,56,6.40
2015,08,28,00,57,4.80
2015,08,28,00,58,4.80
2015,08,28,00,59,6.40
2015,08,28,01,00,8.10
2015,08,28,01,01,4.80
2015,08,28,01,02,6.40
2015,08,28,01,03,6.40
2015,08,28,01,04,6.40
2015,08,28,01,05,1.60
2015,08,28,01,06,4.80
2015,08,28,01,07,3.20
2015,08,28,01,08,4.80
2015,08,28,01,09,4.80
2015,08,28,01,10,4.80
2015,08,28,01,11,3.20
2015,08,28,01,12,6.40
2015,08,28,01,13,8.10
2015,08,28,01,14,6.40
2015,08,28,01,15,8.10
2015,08,28,01,16,8.10
2015,08,28,01,17,9.60
2015,08,28,01,18,6.40
2015,08,28,01,19,4.80
2015,08,28,01,20,1.60
2015,08,28,01,22,1.60
2015,08,28,01,23,1.60
2015,08,28,01,27,3.20
2015,08,28,01,28,4.80
2015,08,28,01,29,3.20
2015,08,28,01,30,4.80
2015,08,28,01,31,4.80
2015,08,28,01,32,8.10
2015,08,28,01,33,6.40
2015,08,28,01,34,6.40
2015,08,28,01,35,6.40
2015,08,28,01,36,6.40
2015,08,28,01,37,6.40
2015,08,28,01,38,4.80
2015,08,28,01,39,4.80
2015,08,28,01,40,6.40
2015,08,28,01,41,4.80
2015,08,28,01,42,8.10
2015,08,28,01,43,4.80
2015,08,28,01,44,6.40
2015,08,28,01,45,4.80
2015,08,28,01,46,8.10
2015,08,28,01,47,8.10
2015,08,28,01,48,8.10
2015,08,28,01,49,6.40
2015,08,28,01,50,4.80
2015,08,28,01,51,8.10
2015,08,28,01,52,4.80
2015,08,28,01,53,4.80
2015,08,28,01,54,6.40
2015,08,28,01,55,6.40
2015,08,28,01,56,6.40
2015,08,28,01,57,4.80
2015,08,28,01,58,8.10
2015,08,28,01,59,6.40
2015,08,28,02,00,6.40
2015,08,28,02,01,4.80
2015,08,28,02,02,6.40
2015,08,28,02,03,6.40
2015,08,28,02,04,1.60
2015,08,28,02,05,4.80
2015,08,28,02,06,4.80
2015,08,28,02,07,4.80
2015,08,28,02,08,4.80
2015,08,28,02,09,4.80
2015,08,28,02,10,3.20
2015,08,28,02,11,3.20
2015,08,28,02,12,1.60
2015,08,28,02,13,1.60
2015,08,28,02,14,3.20
2015,08,28,02,15,3.20
2015,08,28,02,16,1.60
2015,08,28,02,17,1.60
2015,08,28,02,18,3.20
2015,08,28,02,19,3.20
2015,08,28,02,20,1.60
2015,08,28,02,21,4.80
2015,08,28,02,22,3.20
2015,08,28,02,23,1.60
2015,08,28,02,24,1.60
2015,08,28,02,25,3.20
2015,08,28,02,27,1.60
2015,08,28,02,31,4.80
2015,08,28,02,32,8.10
2015,08,28,02,33,8.10
2015,08,28,02,34,6.40
2015,08,28,02,35,1.60
2015,08,28,02,36,6.40
2015,08,28,02,37,6.40
2015,08,28,02,38,3.20
2015,08,28,02,39,4.80
2015,08,28,02,40,3.20
2015,08,28,02,41,1.60
2015,08,28,02,42,3.20
2015,08,28,02,43,1.60
2015,08,28,02,44,1.60
2015,08,28,02,45,4.80
2015,08,28,02,46,6.40
2015,08,28,02,47,4.80
2015,08,28,02,48,4.80
2015,08,28,02,49,3.20
2015,08,28,02,50,3.20
2015,08,28,02,51,1.60
2015,08,28,02,52,4.80
2015,08,28,02,53,4.80
2015,08,28,02,54,3.20
2015,08,28,02,55,9.60
2015,08,28,02,56,6.40
2015,08,28,02,57,8.10
2015,08,28,02,58,6.40
2015,08,28,02,59,6.40
2015,08,28,03,00,8.10
2015,08,28,03,01,8.10
2015,08,28,03,02,8.10
2015,08,28,03,03,6.40
2015,08,28,03,04,6.40
2015,08,28,03,05,4.80
2015,08,28,03,06,4.80
2015,08,28,03,07,6.40
2015,08,28,03,08,6.40
2015,08,28,03,09,4.80
2015,08,28,03,10,6.40
2015,08,28,03,11,4.80
2015,08,28,03,12,6.40
2015,08,28,03,13,6.40
2015,08,28,03,14,6.40
2015,08,28,03,15,4.80
2015,08,28,03,16,6.40
2015,08,28,03,17,6.40
2015,08,28,03,18,9.60
2015,08,28,03,19,9.60
2015,08,28,03,20,9.60
2015,08,28,03,21,6.40
2015,08,28,03,22,3.20
2015,08,28,03,23,3.20
2015,08,28,03,24,3.20
2015,08,28,03,25,3.20
2015,08,28,03,26,4.80
2015,08,28,03,27,3.20
2015,08,28,03,30,1.60
2015,08,28,03,31,1.60
2015,08,28,03,32,1.60
2015,08,28,03,33,1.60
2015,08,28,03,34,1.60
2015,08,28,03,37,1.60
2015,08,28,03,38,4.80
2015,08,28,03,39,4.80
2015,08,28,03,40,6.40
2015,08,28,03,41,4.80
2015,08,28,03,43,1.60
2015,08,28,03,45,4.80
2015,08,28,03,46,4.80
2015,08,28,03,47,1.60
2015,08,28,03,50,3.20
2015,08,28,03,51,3.20
2015,08,28,03,52,1.60
2015,08,28,03,53,1.60
2015,08,28,03,54,3.20
2015,08,28,03,55,1.60
2015,08,28,03,56,1.60
2015,08,28,03,57,3.20
2015,08,28,05,16,4.80
2015,08,28,05,17,3.20
2015,08,28,05,18,1.60
2015,08,28,05,25,3.20
2015,08,28,05,28,1.60
2015,08,28,05,29,3.20
2015,08,28,05,30,3.20
2015,08,28,05,31,1.60
2015,08,28,05,53,3.20
2015,08,28,05,54,4.80
2015,08,28,05,55,3.20
2015,08,28,05,56,3.20
2015,08,28,05,57,4.80
2015,08,28,05,58,4.80
2015,08,28,05,59,1.60
2015,08,28,06,00,4.80
2015,08,28,06,01,4.80
2015,08,28,06,02,1.60
2015,08,28,06,03,1.60
2015,08,28,06,04,1.60
2015,08,28,06,14,1.60
2015,08,28,06,15,3.20
2015,08,28,06,16,1.60
2015,08,28,06,17,3.20
2015,08,28,06,18,1.60
2015,08,28,06,27,1.60
2015,08,28,06,28,1.60
2015,08,28,06,29,1.60
2015,08,28,06,34,1.60
2015,08,28,07,02,1.60
2015,08,28,07,03,1.60
2015,08,28,07,58,1.60
2015,08,28,07,59,1.60
2015,08,28,08,00,1.60
2015,08,28,08,01,1.60
2015,08,28,08,02,1.60
2015,08,28,08,03,6.40
2015,08,28,08,04,6.40
2015,08,28,08,05,3.20
2015,08,28,08,06,3.20
2015,08,28,08,07,3.20
2015,08,28,08,08,6.40
2015,08,28,08,09,4.80
2015,08,28,08,10,3.20
2015,08,28,08,11,4.80
2015,08,28,08,12,9.60
2015,08,28,08,13,8.10
2015,08,28,08,14,11.30
2015,08,28,08,15,11.30
2015,08,28,08,16,8.10
2015,08,28,08,17,8.10
2015,08,28,08,18,8.10
2015,08,28,08,19,4.80
2015,08,28,08,20,9.60
2015,08,28,08,21,8.10
2015,08,28,08,22,4.80
2015,08,28,08,23,3.20
2015,08,28,08,24,4.80
2015,08,28,08,25,8.10
2015,08,28,08,26,6.40
2015,08,28,08,27,4.80
2015,08,28,08,28,1.60
2015,08,28,08,29,1.60
2015,08,28,08,30,1.60
2015,08,28,08,31,1.60
2015,08,28,08,32,1.60
2015,08,28,08,36,1.60
2015,08,28,08,37,3.20
2015,08,28,08,38,8.10
2015,08,28,08,39,6.40
2015,08,28,08,40,4.80
2015,08,28,08,41,3.20
2015,08,28,08,42,3.20
2015,08,28,08,43,1.60
2015,08,28,08,44,3.20
2015,08,28,08,46,3.20
2015,08,28,08,47,1.60
2015,08,28,08,48,1.60
2015,08,28,08,49,4.80
2015,08,28,08,50,3.20
2015,08,28,08,51,1.60
2015,08,28,09,09,1.60
2015,08,28,09,10,3.20
2015,08,28,09,11,3.20
2015,08,28,09,37,3.20
2015,08,28,09,38,3.20
2015,08,28,09,40,1.60
2015,08,28,09,42,3.20
2015,08,28,09,43,3.20
2015,08,28,09,44,3.20
2015,08,28,09,45,1.60
2015,08,28,09,46,3.20
2015,08,28,09,47,3.20
2015,08,28,09,48,1.60
2015,08,28,09,49,1.60
2015,08,28,09,50,1.60
2015,08,28,09,51,3.20
2015,08,28,09,53,1.60
2015,08,28,09,54,1.60
2015,08,28,09,55,3.20
2015,08,28,09,56,1.60
2015,08,28,09,57,1.60
2015,08,28,09,58,3.20
2015,08,28,09,59,8.10
2015,08,28,10,00,6.40
2015,08,28,10,01,4.80
2015,08,28,10,02,4.80
2015,08,28,10,03,4.80
2015,08,28,10,04,4.80
2015,08,28,10,05,4.80
2015,08,28,10,06,4.80
2015,08,28,10,07,3.20
2015,08,28,10,08,4.80
2015,08,28,10,09,3.20
2015,08,28,10,10,4.80
2015,08,28,10,11,1.60
2015,08,28,10,12,4.80
2015,08,28,10,13,3.20
2015,08,28,10,14,3.20
2015,08,28,10,15,3.20
2015,08,28,10,16,3.20
2015,08,28,10,17,3.20
2015,08,28,10,18,3.20
2015,08,28,10,22,3.20
2015,08,28,10,23,3.20
2015,08,28,10,24,3.20
2015,08,28,10,25,3.20
2015,08,28,10,26,1.60
2015,08,28,10,27,4.80
2015,08,28,10,28,4.80
2015,08,28,10,29,3.20
2015,08,28,10,30,3.20
2015,08,28,10,31,3.20
2015,08,28,10,32,6.40
2015,08,28,10,33,4.80
2015,08,28,10,34,3.20
2015,08,28,10,35,3.20
2015,08,28,10,36,1.60
2015,08,28,10,37,3.20
2015,08,28,10,38,4.80
2015,08,28,10,39,4.80
2015,08,28,10,40,3.20
2015,08,28,10,41,4.80
2015,08,28,10,42,4.80
2015,08,28,10,43,4.80
2015,08,28,10,44,4.80
2015,08,28,10,45,6.40
2015,08,28,10,46,4.80
2015,08,28,10,47,8.10
2015,08,28,10,48,4.80
2015,08,28,10,49,3.20
2015,08,28,10,50,3.20
2015,08,28,10,51,3.20
2015,08,28,10,52,3.20
2015,08,28,10,53,4.80
2015,08,28,10,54,8.10
2015,08,28,10,55,8.10
2015,08,28,10,56,8.10
2015,08,28,10,57,9.60
2015,08,28,10,58,6.40
2015,08,28,10,59,6.40
2015,08,28,11,00,8.10
2015,08,28,11,01,4.80
2015,08,28,11,02,9.60
2015,08,28,11,03,6.40
2015,08,28,11,04,8.10
2015,08,28,11,05,8.10
2015,08,28,11,06,6.40
2015,08,28,11,07,8.10
2015,08,28,11,08,6.40
2015,08,28,11,09,4.80
2015,08,28,11,10,8.10
2015,08,28,11,11,4.80
2015,08,28,11,12,9.60
2015,08,28,11,13,6.40
2015,08,28,11,14,9.60
2015,08,28,11,15,6.40
2015,08,28,11,16,6.40
2015,08,28,11,17,8.10
2015,08,28,11,18,8.10
2015,08,28,11,19,6.40
2015,08,28,11,20,8.10
2015,08,28,11,21,6.40
2015,08,28,11,22,6.40
2015,08,28,11,23,6.40
2015,08,28,11,24,3.20
2015,08,28,11,25,3.20
2015,08,28,11,26,4.80
2015,08,28,11,27,4.80
2015,08,28,11,28,4.80
2015,08,28,11,29,4.80
2015,08,28,11,30,4.80
2015,08,28,11,31,3.20
2015,08,28,11,32,3.20
2015,08,28,11,33,4.80
2015,08,28,11,34,8.10
2015,08,28,11,35,4.80
2015,08,28,11,36,4.80
2015,08,28,11,37,6.40
2015,08,28,11,38,8.10
2015,08,28,11,39,11.30
2015,08,28,11,40,9.60
2015,08,28,11,41,6.40
2015,08,28,11,42,6.40
2015,08,28,11,43,6.40
2015,08,28,11,44,6.40
2015,08,28,11,45,11.30
2015,08,28,11,46,8.10
2015,08,28,11,47,8.10
2015,08,28,11,48,6.40
2015,08,28,11,49,6.40
2015,08,28,11,50,4.80
2015,08,28,11,51,8.10
2015,08,28,11,52,8.10
2015,08,28,11,53,6.40
2015,08,28,11,54,4.80
2015,08,28,11,55,9.60
2015,08,28,11,56,9.60
2015,08,28,11,57,8.10
2015,08,28,11,58,8.10
2015,08,28,11,59,11.30
2015,08,28,12,00,9.60
2015,08,28,12,01,4.80
2015,08,28,12,02,11.30
2015,08,28,12,03,12.90
2015,08,28,12,04,9.60
2015,08,28,12,05,11.30
2015,08,28,12,06,9.60
2015,08,28,12,07,14.50
2015,08,28,12,08,11.30
2015,08,28,12,09,12.90
2015,08,28,12,10,14.50
2015,08,28,12,11,12.90
2015,08,28,12,12,16.10
2015,08,28,12,13,16.10
2015,08,28,12,14,16.10
2015,08,28,12,15,12.90
2015,08,28,12,16,14.50
2015,08,28,12,17,9.60
2015,08,28,12,18,11.30
2015,08,28,12,19,9.60
2015,08,28,12,20,12.90
2015,08,28,12,21,12.90
2015,08,28,12,22,9.60
2015,08,28,12,23,9.60
2015,08,28,12,24,11.30
2015,08,28,12,25,12.90
2015,08,28,12,26,12.90
2015,08,28,12,27,17.70
2015,08,28,12,28,16.10
2015,08,28,12,29,14.50
2015,08,28,12,30,14.50
2015,08,28,12,31,8.10
2015,08,28,12,32,14.50
2015,08,28,12,33,14.50
2015,08,28,12,34,9.60
2015,08,28,12,35,14.50
2015,08,28,12,36,17.70
2015,08,28,12,37,14.50
2015,08,28,12,38,14.50
2015,08,28,12,39,14.50
2015,08,28,12,40,12.90
2015,08,28,12,41,14.50
2015,08,28,12,42,14.50
2015,08,28,12,43,12.90
2015,08,28,12,44,14.50
2015,08,28,12,45,12.90
2015,08,28,12,46,11.30
2015,08,28,12,47,9.60
2015,08,28,12,48,16.10
2015,08,28,12,49,12.90
2015,08,28,12,50,9.60
2015,08,28,12,51,12.90
2015,08,28,12,52,12.90
2015,08,28,12,53,12.90
2015,08,28,12,54,14.50
2015,08,28,12,55,8.10
2015,08,28,12,56,8.10
2015,08,28,12,57,4.80
2015,08,28,12,58,8.10
2015,08,28,12,59,9.60
2015,08,28,13,00,11.30
2015,08,28,13,01,8.10
2015,08,28,13,02,12.90
2015,08,28,13,03,9.60
2015,08,28,13,04,12.90
2015,08,28,13,05,12.90
2015,08,28,13,06,14.50
2015,08,28,13,07,12.90
2015,08,28,13,08,9.60
2015,08,28,13,09,16.10
2015,08,28,13,10,16.10
2015,08,28,13,11,16.10
2015,08,28,13,12,9.60
2015,08,28,13,13,14.50
2015,08,28,13,14,17.70
2015,08,28,13,15,9.60
2015,08,28,13,16,14.50
2015,08,28,13,17,11.30
2015,08,28,13,18,11.30
2015,08,28,13,19,16.10
2015,08,28,13,20,16.10
2015,08,28,13,21,9.60
2015,08,28,13,22,9.60
2015,08,28,13,23,12.90
2015,08,28,13,24,11.30
2015,08,28,13,25,11.30
2015,08,28,13,26,11.30
2015,08,28,13,27,12.90
2015,08,28,13,28,9.60
2015,08,28,13,29,6.40
2015,08,28,13,30,9.60
2015,08,28,13,31,11.30
2015,08,28,13,32,11.30
2015,08,28,13,33,11.30
2015,08,28,13,34,12.90
2015,08,28,13,35,12.90
2015,08,28,13,36,12.90
2015,08,28,13,37,8.10
2015,08,28,13,38,8.10
2015,08,28,13,39,8.10
2015,08,28,13,40,12.90
2015,08,28,13,41,12.90
2015,08,28,13,42,9.60
2015,08,28,13,43,12.90
2015,08,28,13,44,9.60
2015,08,28,13,45,6.40
2015,08,28,13,46,8.10
2015,08,28,13,47,8.10
2015,08,28,13,48,9.60
2015,08,28,13,49,9.60
2015,08,28,13,50,14.50
2015,08,28,13,51,14.50
2015,08,28,13,52,12.90
2015,08,28,13,53,12.90
2015,08,28,13,54,14.50
2015,08,28,13,55,14.50
2015,08,28,13,56,6.40
2015,08,28,13,57,9.60
2015,08,28,13,58,9.60
2015,08,28,13,59,12.90
2015,08,28,14,00,6.40
2015,08,28,14,01,8.10
2015,08,28,14,02,14.50
2015,08,28,14,03,12.90
2015,08,28,14,04,11.30
2015,08,28,14,05,8.10
2015,08,28,14,06,8.10
2015,08,28,14,07,11.30
2015,08,28,14,08,12.90
2015,08,28,14,09,11.30
2015,08,28,14,10,9.60
2015,08,28,14,11,9.60
2015,08,28,14,12,8.10
2015,08,28,14,13,11.30
2015,08,28,14,14,12.90
2015,08,28,14,15,9.60
2015,08,28,14,16,8.10
2015,08,28,14,17,9.60
2015,08,28,14,18,14.50
2015,08,28,14,19,11.30
2015,08,28,14,20,12.90
2015,08,28,14,21,6.40
2015,08,28,14,22,14.50
2015,08,28,14,23,12.90
2015,08,28,14,24,11.30
2015,08,28,14,25,9.60
2015,08,28,14,26,9.60
2015,08,28,14,27,4.80
2015,08,28,14,28,12.90
2015,08,28,14,29,8.10
2015,08,28,14,30,11.30
2015,08,28,14,31,11.30
2015,08,28,14,32,12.90
2015,08,28,14,33,12.90
2015,08,28,14,34,9.60
2015,08,28,14,35,16.10
2015,08,28,14,36,11.30
2015,08,28,14,37,9.60
2015,08,28,14,38,12.90
2015,08,28,14,39,11.30
2015,08,28,14,40,16.10
2015,08,28,14,41,12.90
2015,08,28,14,42,8.10
2015,08,28,14,43,8.10
2015,08,28,14,44,12.90
2015,08,28,14,45,16.10
2015,08,28,14,46,12.90
2015,08,28,14,47,11.30
2015,08,28,14,48,8.10
2015,08,28,14,49,6.40
2015,08,28,14,50,6.40
2015,08,28,14,51,11.30
2015,08,28,14,52,14.50
2015,08,28,14,53,8.10
2015,08,28,14,54,8.10
2015,08,28,14,55,9.60
2015,08,28,14,56,11.30
2015,08,28,14,57,9.60
2015,08,28,14,58,12.90
2015,08,28,14,59,12.90
2015,08,28,15,00,9.60
2015,08,28,15,01,14.50
2015,08,28,15,02,9.60
2015,08,28,15,03,11.30
2015,08,28,15,04,11.30
2015,08,28,15,05,8.10
2015,08,28,15,06,9.60
2015,08,28,15,07,12.90
2015,08,28,15,08,14.50
2015,08,28,15,09,16.10
2015,08,28,15,10,11.30
2015,08,28,15,11,11.30
2015,08,28,15,12,11.30
2015,08,28,15,13,9.60
2015,08,28,15,14,9.60
2015,08,28,15,15,12.90
2015,08,28,15,16,11.30
2015,08,28,15,17,12.90
2015,08,28,15,18,9.60
2015,08,28,15,19,11.30
2015,08,28,15,20,9.60
2015,08,28,15,21,11.30
2015,08,28,15,22,9.60
2015,08,28,15,23,12.90
2015,08,28,15,24,6.40
2015,08,28,15,25,11.30
2015,08,28,15,26,11.30
2015,08,28,15,27,8.10
2015,08,28,15,28,8.10
2015,08,28,15,29,11.30
2015,08,28,15,30,8.10
2015,08,28,15,31,6.40
2015,08,28,15,32,8.10
2015,08,28,15,33,8.10
2015,08,28,15,34,11.30
2015,08,28,15,35,12.90
2015,08,28,15,36,9.60
2015,08,28,15,37,8.10
2015,08,28,15,38,9.60
2015,08,28,15,39,11.30
2015,08,28,15,40,9.60
2015,08,28,15,41,14.50
2015,08,28,15,42,11.30
2015,08,28,15,43,6.40
2015,08,28,15,44,8.10
2015,08,28,15,45,12.90
2015,08,28,15,46,11.30
2015,08,28,15,47,12.90
2015,08,28,15,48,9.60
2015,08,28,15,49,11.30
2015,08,28,15,50,9.60
2015,08,28,15,51,9.60
2015,08,28,15,52,8.10
2015,08,28,15,53,11.30
2015,08,28,15,54,12.90
2015,08,28,15,55,12.90
2015,08,28,15,56,11.30
2015,08,28,15,57,11.30
2015,08,28,15,58,8.10
2015,08,28,15,59,12.90
2015,08,28,16,00,12.90
2015,08,28,16,01,12.90
2015,08,28,16,02,12.90
2015,08,28,16,03,11.30
2015,08,28,16,04,6.40
2015,08,28,16,05,6.40
2015,08,28,16,06,4.80
2015,08,28,16,07,11.30
2015,08,28,16,08,12.90
2015,08,28,16,09,9.60
2015,08,28,16,10,11.30
2015,08,28,16,11,8.10
2015,08,28,16,12,9.60
2015,08,28,16,13,9.60
2015,08,28,16,14,11.30
2015,08,28,16,15,12.90
2015,08,28,16,16,9.60
2015,08,28,16,17,9.60
2015,08,28,16,18,8.10
2015,08,28,16,19,11.30
2015,08,28,16,20,11.30
2015,08,28,16,21,8.10
2015,08,28,16,22,6.40
2015,08,28,16,23,12.90
2015,08,28,16,24,11.30
2015,08,28,16,25,11.30
2015,08,28,16,26,12.90
2015,08,28,16,27,11.30
2015,08,28,16,28,11.30
2015,08,28,16,29,12.90
2015,08,28,16,30,11.30
2015,08,28,16,31,11.30
2015,08,28,16,32,9.60
2015,08,28,16,33,9.60
2015,08,28,16,34,11.30
2015,08,28,16,35,12.90
2015,08,28,16,36,11.30
2015,08,28,16,37,12.90
2015,08,28,16,38,6.40
2015,08,28,16,39,4.80
2015,08,28,16,40,6.40
2015,08,28,16,41,12.90
2015,08,28,16,42,12.90
2015,08,28,16,43,11.30
2015,08,28,16,44,11.30
2015,08,28,16,45,14.50
2015,08,28,16,46,11.30
2015,08,28,16,47,4.80
2015,08,28,16,48,11.30
2015,08,28,16,49,11.30
2015,08,28,16,50,14.50
2015,08,28,16,51,11.30
2015,08,28,16,52,9.60
2015,08,28,16,53,8.10
2015,08,28,16,54,8.10
2015,08,28,16,55,8.10
2015,08,28,16,56,8.10
2015,08,28,16,57,8.10
2015,08,28,16,58,9.60
2015,08,28,16,59,6.40
2015,08,28,17,00,4.80
2015,08,28,17,01,8.10
2015,08,28,17,02,9.60
2015,08,28,17,03,4.80
2015,08,28,17,04,6.40
2015,08,28,17,05,9.60
2015,08,28,17,06,8.10
2015,08,28,17,07,12.90
2015,08,28,17,08,8.10
2015,08,28,17,09,11.30
2015,08,28,17,10,8.10
2015,08,28,17,11,11.30
2015,08,28,17,12,8.10
2015,08,28,17,13,6.40
2015,08,28,17,14,8.10
2015,08,28,17,15,8.10
2015,08,28,17,16,8.10
2015,08,28,17,17,12.90
2015,08,28,17,18,9.60
2015,08,28,17,19,9.60
2015,08,28,17,20,11.30
2015,08,28,17,21,8.10
2015,08,28,17,22,11.30
2015,08,28,17,23,6.40
2015,08,28,17,24,12.90
2015,08,28,17,25,12.90
2015,08,28,17,26,11.30
2015,08,28,17,27,8.10
2015,08,28,17,28,11.30
2015,08,28,17,29,8.10
2015,08,28,17,30,11.30
2015,08,28,17,31,11.30
2015,08,28,17,32,9.60
2015,08,28,17,33,8.10
2015,08,28,17,34,6.40
2015,08,28,17,35,6.40
2015,08,28,17,36,9.60
2015,08,28,17,37,11.30
2015,08,28,17,38,9.60
2015,08,28,17,39,8.10
2015,08,28,17,40,9.60
2015,08,28,17,41,11.30
2015,08,28,17,42,11.30
2015,08,28,17,43,12.90
2015,08,28,17,44,12.90
2015,08,28,17,45,9.60
2015,08,28,17,46,9.60
2015,08,28,17,47,9.60
2015,08,28,17,48,11.30
2015,08,28,17,49,12.90
2015,08,28,17,50,11.30
2015,08,28,17,51,4.80
2015,08,28,17,52,9.60
2015,08,28,17,53,8.10
2015,08,28,17,54,9.60
2015,08,28,17,55,9.60
2015,08,28,17,56,9.60
2015,08,28,17,57,6.40
2015,08,28,17,58,8.10
2015,08,28,17,59,9.60
2015,08,28,18,00,6.40
2015,08,28,18,01,4.80
2015,08,28,18,02,8.10
2015,08,28,18,03,9.60
2015,08,28,18,04,8.10
2015,08,28,18,05,1.60
2015,08,28,18,06,1.60
2015,08,28,18,07,6.40
2015,08,28,18,08,8.10
2015,08,28,18,09,9.60
2015,08,28,18,10,9.60
2015,08,28,18,11,8.10
2015,08,28,18,12,4.80
2015,08,28,18,13,6.40
2015,08,28,18,14,9.60
2015,08,28,18,15,4.80
2015,08,28,18,16,8.10
2015,08,28,18,17,11.30
2015,08,28,18,18,6.40
2015,08,28,18,19,6.40
2015,08,28,18,20,8.10
2015,08,28,18,21,8.10
2015,08,28,18,22,4.80
2015,08,28,18,23,8.10
2015,08,28,18,24,4.80
2015,08,28,18,25,4.80
2015,08,28,18,26,4.80
2015,08,28,18,27,4.80
2015,08,28,18,28,8.10
2015,08,28,18,29,9.60
2015,08,28,18,30,9.60
2015,08,28,18,31,4.80
2015,08,28,18,32,6.40
2015,08,28,18,33,3.20
2015,08,28,18,34,1.60
2015,08,28,18,35,3.20
2015,08,28,18,36,4.80
2015,08,28,18,37,4.80
2015,08,28,18,38,4.80
2015,08,28,18,39,3.20
2015,08,28,18,40,1.60
2015,08,28,18,45,3.20
2015,08,28,18,46,4.80
2015,08,28,18,47,3.20
2015,08,28,18,48,1.60
2015,08,28,18,50,3.20
2015,08,28,18,52,3.20
2015,08,28,18,53,1.60
2015,08,28,18,54,3.20
2015,08,28,18,55,3.20
2015,08,28,18,56,1.60
2015,08,28,19,00,1.60
2015,08,28,19,01,3.20
2015,08,28,19,02,1.60
2015,08,28,19,03,6.40
2015,08,28,19,04,3.20
2015,08,28,19,05,4.80
2015,08,28,19,06,4.80
2015,08,28,19,07,6.40
2015,08,28,19,08,6.40
2015,08,28,19,09,6.40
2015,08,28,19,10,3.20
2015,08,28,19,11,4.80
2015,08,28,19,12,3.20
2015,08,28,19,13,4.80
2015,08,28,19,14,3.20
2015,08,28,19,15,3.20
2015,08,28,19,16,1.60
2015,08,28,19,17,3.20
2015,08,28,19,18,3.20
2015,08,28,19,19,3.20
2015,08,28,19,20,3.20
2015,08,28,19,21,1.60
2015,08,28,19,22,1.60
2015,08,28,19,23,3.20
2015,08,28,19,24,3.20
2015,08,28,19,25,3.20
2015,08,28,19,26,3.20
2015,08,28,19,28,1.60
2015,08,28,19,29,1.60
2015,08,28,19,30,3.20
2015,08,28,19,31,4.80
2015,08,28,19,32,1.60
2015,08,28,19,33,3.20
2015,08,28,19,34,3.20
2015,08,28,19,36,3.20
2015,08,28,19,37,1.60
2015,08,28,19,38,3.20
2015,08,28,19,39,3.20
2015,08,28,19,40,1.60
2015,08,28,19,41,1.60
2015,08,28,19,42,4.80
2015,08,28,19,43,3.20
2015,08,28,19,44,3.20
2015,08,28,19,45,1.60
2015,08,28,19,46,3.20
2015,08,28,19,48,1.60
2015,08,28,19,49,1.60
2015,08,28,19,50,1.60
2015,08,28,19,51,3.20
2015,08,28,19,52,3.20
2015,08,28,19,56,1.60
2015,08,28,19,57,1.60
2015,08,28,19,58,1.60
2015,08,28,20,00,1.60
2015,08,28,20,01,3.20
2015,08,28,20,02,1.60
2015,08,28,20,04,1.60
2015,08,28,20,05,1.60
2015,08,28,20,06,1.60
2015,08,28,20,07,3.20
2015,08,28,20,08,3.20
2015,08,28,20,09,3.20
2015,08,28,20,10,1.60
2015,08,28,20,11,1.60
2015,08,28,20,12,1.60
2015,08,28,20,13,1.60
2015,08,28,20,14,1.60
2015,08,28,20,15,1.60
2015,08,28,20,16,1.60
2015,08,28,20,22,1.60
2015,08,28,20,26,1.60
2015,08,28,20,27,1.60
2015,08,28,20,28,1.60
2015,08,28,20,29,3.20
2015,08,28,20,30,1.60
2015,08,28,20,31,1.60
2015,08,28,20,32,3.20
2015,08,28,20,33,3.20
2015,08,28,20,35,1.60
2015,08,28,20,36,1.60
2015,08,28,20,37,3.20
2015,08,28,20,38,1.60
2015,08,28,20,39,3.20
2015,08,28,20,40,3.20
2015,08,28,20,41,3.20
2015,08,28,20,42,3.20
2015,08,28,20,43,1.60
2015,08,28,20,44,3.20
2015,08,28,20,45,3.20
2015,08,28,20,46,3.20
2015,08,28,20,47,3.20
2015,08,28,20,48,3.20
2015,08,28,20,49,1.60
2015,08,28,20,50,1.60
2015,08,28,20,51,4.80
2015,08,28,20,52,3.20
2015,08,28,20,53,4.80
2015,08,28,20,54,1.60
2015,08,28,20,55,1.60
2015,08,28,21,00,1.60
2015,08,28,21,01,1.60
2015,08,28,21,08,1.60
2015,08,28,21,09,3.20
2015,08,28,21,10,3.20
2015,08,28,21,11,3.20
2015,08,28,21,12,3.20
2015,08,28,21,13,3.20
2015,08,28,21,14,3.20
2015,08,28,21,15,3.20
2015,08,28,21,16,1.60
2015,08,28,21,17,3.20
2015,08,28,21,18,4.80
2015,08,28,21,19,4.80
2015,08,28,21,20,3.20
2015,08,28,21,21,3.20
2015,08,28,21,23,3.20
2015,08,28,21,24,3.20
2015,08,28,21,25,4.80
2015,08,28,21,26,4.80
2015,08,28,21,27,3.20
2015,08,28,21,28,1.60
2015,08,28,21,29,1.60
2015,08,28,21,32,1.60
2015,08,28,21,33,1.60
2015,08,28,21,34,1.60
2015,08,28,21,37,1.60
2015,08,28,21,38,1.60
2015,08,28,21,39,1.60
2015,08,28,21,40,3.20
2015,08,28,21,41,3.20
2015,08,28,21,42,1.60
2015,08,28,21,43,1.60
2015,08,28,21,44,1.60
2015,08,28,21,45,1.60
2015,08,28,21,48,3.20
2015,08,28,21,49,1.60
2015,08,28,21,50,1.60
2015,08,28,21,57,1.60
2015,08,28,21,58,1.60
2015,08,28,22,06,1.60
2015,08,28,22,08,1.60
2015,08,28,22,09,3.20
2015,08,28,22,10,1.60
2015,08,28,22,11,1.60
2015,08,28,22,40,1.60
2015,08,28,22,41,1.60
2015,08,28,22,43,1.60
2015,08,28,22,44,1.60
2015,08,28,22,48,1.60
2015,08,28,22,49,1.60
2015,08,28,22,50,1.60
2015,08,28,22,51,3.20
2015,08,28,22,52,1.60
2015,08,28,22,53,1.60
2015,08,28,22,54,1.60
2015,08,28,22,55,3.20
2015,08,28,22,56,1.60
2015,08,28,22,57,1.60
2015,08,28,22,58,1.60
2015,08,28,22,59,1.60
2015,08,28,23,00,3.20
2015,08,28,23,01,1.60
2015,08,28,23,02,3.20
2015,08,28,23,03,1.60
2015,08,28,23,04,3.20
2015,08,28,23,05,4.80
2015,08,28,23,06,3.20
2015,08,28,23,07,6.40
2015,08,28,23,08,4.80
2015,08,28,23,09,3.20
2015,08,28,23,10,3.20
2015,08,28,23,11,3.20
2015,08,28,23,12,4.80
2015,08,28,23,13,1.60
2015,08,28,23,14,1.60
2015,08,28,23,15,3.20
2015,08,28,23,16,4.80
2015,08,28,23,17,4.80
2015,08,28,23,18,4.80
2015,08,28,23,19,4.80
2015,08,28,23,20,4.80
2015,08,28,23,21,3.20
2015,08,28,23,22,6.40
2015,08,28,23,23,4.80
2015,08,28,23,24,4.80
2015,08,28,23,25,4.80
2015,08,28,23,26,3.20
2015,08,28,23,27,4.80
2015,08,28,23,28,3.20
2015,08,28,23,29,1.60
2015,08,28,23,30,1.60
2015,08,28,23,31,3.20
2015,08,28,23,32,3.20
2015,08,28,23,33,4.80
2015,08,28,23,34,3.20
2015,08,28,23,35,3.20
2015,08,28,23,36,3.20
2015,08,28,23,37,3.20
2015,08,28,23,38,3.20
2015,08,28,23,39,4.80
2015,08,28,23,40,3.20
2015,08,28,23,41,3.20
2015,08,28,23,42,3.20
2015,08,28,23,43,1.60
2015,08,28,23,44,1.60
2015,08,28,23,48,1.60
2015,08,28,23,49,1.60
2015,08,28,23,50,3.20
2015,08,28,23,51,1.60
2015,08,28,23,52,1.60
2015,08,28,23,54,1.60
2015,08,28,23,55,1.60
2015,08,28,23,56,1.60
2015,08,28,23,57,1.60
2015,08,28,23,58,3.20
2015,08,28,23,59,4.80
